Girona, Spain

10:23 AM CET on February 11, 2016 (GMT +0100)
Girona

Weather History for LEGE - February, 2014

Change the Weather History Date:

Friday, February 14, 2014

  Actual Average Record
Temperature  
Mean Temperature 60 °F -  
Max Temperature 74 °F 60 °F 74 °F (2014)
Min Temperature 46 °F 37 °F 23 °F (1999)
Degree Days  
Heating Degree Days 5    
Growing Degree Days 10 (Base 50)    
Moisture  
Dew Point 48 °F    
Average Humidity 67    
Maximum Humidity 94    
Minimum Humidity 31    
Precipitation  
Precipitation 0.00 in 0.07 in - ()
Sea Level Pressure  
Sea Level Pressure 29.84 in    
Wind  
Wind Speed 10 mph ()    
Max Wind Speed 20 mph    
Max Gust Speed 32 mph    
Visibility 6.9 miles    
Events      
Averages and records for this station are not official NWS values.
T = Trace of Precipitation, MM = Missing Value Source: Averaged Metar Reports

Daily Weather History Graph

Daily Weather History Graph

Search for Another Location

Airport or City:

Trip Planner

Search our weather history database for the weather conditions in past years. The results will help you decide how hot, cold, wet, or windy it might be!

Date:

Astronomy

Feb. 14, 2014 Rise Set
Actual Time 7:46 AM CET 6:20 PM CET
Civil Twilight 7:17 AM CET 6:49 PM CET
Nautical Twilight 6:44 AM CET 7:21 PM CET
Astronomical Twilight 6:12 AM CET 7:54 PM CET
Moon 6:10 PM CET (2/14) 7:04 AM CET (2/14)
Length of Visible Light 11h 31m
Length of Day
10h 34m
Full, 100% of the Moon is Illuminated
Feb 14
Full
Feb 15
Full
Feb 22
Last Quarter
Mar 1
New
Mar 8
First Quarter

Hourly Weather History & Observations

Time (CET) Temp. Dew Point Humidity Pressure Visibility Wind Dir Wind Speed Gust Speed Precip Events Conditions
12:00 AM 49 °F 48 °F 93% 29.96 in - SW 5.8 mph - -  
12:00 AM 48.2 °F 46.4 °F 93% 29.95 in 6.2 mi SW 4.6 mph - N/A   Partly Cloudy
12:30 AM 50.0 °F 46.4 °F 87% 29.98 in 6.2 mi SW 5.8 mph - N/A   Partly Cloudy
1:00 AM 49 °F 47 °F 91% 29.98 in 9 mi SW 6.9 mph - -   Scattered Clouds
1:00 AM 50.0 °F 46.4 °F 87% 29.98 in 6.2 mi SW 6.9 mph - N/A   Partly Cloudy
1:30 AM 50.0 °F 46.4 °F 87% 29.98 in 6.2 mi SSW 8.1 mph - N/A   Partly Cloudy
2:00 AM 48 °F 46 °F 89% 29.97 in - SSW 9.2 mph - -  
2:00 AM 48.2 °F 46.4 °F 93% 29.98 in 6.2 mi SSW 9.2 mph - N/A   Partly Cloudy
2:30 AM 48.2 °F 44.6 °F 87% 29.98 in 6.2 mi South 8.1 mph - N/A   Partly Cloudy
3:00 AM 49 °F 46 °F 87% 29.97 in - SSW 15.0 mph - -  
3:00 AM 50.0 °F 46.4 °F 87% 29.98 in 6.2 mi SSW 15.0 mph - N/A   Partly Cloudy
3:30 AM 50.0 °F 46.4 °F 87% 29.98 in 6.2 mi SSW 15.0 mph - N/A   Scattered Clouds
4:00 AM 49 °F 46 °F 87% 29.97 in - SSW 13.8 mph - -  
4:00 AM 50.0 °F 46.4 °F 87% 29.98 in 6.2 mi SSW 12.7 mph - N/A   Scattered Clouds
4:30 AM 48.2 °F 46.4 °F 93% 29.95 in 6.2 mi SSW 12.7 mph - N/A   Scattered Clouds
5:00 AM 50 °F 48 °F 91% 29.95 in - South 15.0 mph - -  
5:00 AM 50.0 °F 48.2 °F 94% 29.95 in 6.2 mi SSW 13.8 mph - N/A   Scattered Clouds
5:30 AM 50.0 °F 46.4 °F 87% 29.95 in 6.2 mi South 13.8 mph - N/A   Scattered Clouds
6:00 AM 50 °F 47 °F 87% 29.94 in - South 10.4 mph - -  
6:00 AM 50.0 °F 46.4 °F 87% 29.95 in 6.2 mi South 8.1 mph - N/A   Mostly Cloudy
6:30 AM 48.2 °F 46.4 °F 93% 29.92 in 6.2 mi SSW 12.7 mph - N/A   Scattered Clouds
7:00 AM 49 °F 47 °F 92% 29.90 in 9 mi SSW 16.1 mph - -   Scattered Clouds
7:00 AM 50.0 °F 46.4 °F 87% 29.89 in 6.2 mi SSW 15.0 mph - N/A   Partly Cloudy
7:30 AM 50.0 °F 46.4 °F 87% 29.89 in 6.2 mi SSW 16.1 mph - N/A   Partly Cloudy
8:00 AM 50 °F 48 °F 91% 29.88 in - South 17.3 mph - -  
8:00 AM 50.0 °F 46.4 °F 87% 29.89 in 6.2 mi South 16.1 mph - N/A   Partly Cloudy
8:30 AM 51.8 °F 48.2 °F 88% 29.89 in 6.2 mi South 16.1 mph - N/A   Partly Cloudy
9:00 AM 53 °F 49 °F 83% 29.88 in - SSE 3.5 mph - -  
9:00 AM 53.6 °F 48.2 °F 82% 29.89 in 6.2 mi South 5.8 mph - N/A   Partly Cloudy
9:30 AM 55.4 °F 48.2 °F 77% 29.86 in 6.2 mi South 1.2 mph - N/A   Partly Cloudy
10:00 AM 59 °F 51 °F 66% 29.86 in 22 mi ENE 2.3 mph - -   Scattered Clouds
10:00 AM 57.2 °F 50.0 °F 77% 29.86 in 6.2 mi ESE 1.2 mph - N/A   Partly Cloudy
10:30 AM 60.8 °F 50.0 °F 68% 29.86 in 6.2 mi ESE 1.2 mph - N/A   Partly Cloudy
11:00 AM 65 °F 51 °F 50% 29.83 in - SW 3.5 mph - -  
11:00 AM 62.6 °F 50.0 °F 63% 29.86 in 6.2 mi Calm Calm - N/A   Partly Cloudy
11:30 AM 66.2 °F 48.2 °F 52% 29.83 in - WSW 12.7 mph 25.3 mph N/A   Clear
12:00 PM 70 °F 48 °F 34% 29.83 in - SW 17.3 mph - -  
12:00 PM 68.0 °F 48.2 °F 49% 29.86 in 6.2 mi SW 16.1 mph - N/A   Partly Cloudy
12:30 PM 68.0 °F 48.2 °F 49% 29.83 in 6.2 mi SW 15.0 mph 29.9 mph N/A   Partly Cloudy
1:00 PM 71 °F 51 °F 38% 29.80 in 19 mi SW 17.3 mph - -   Scattered Clouds
1:00 PM 69.8 °F 48.2 °F 46% 29.83 in 6.2 mi SW 16.1 mph 28.8 mph N/A   Partly Cloudy
1:30 PM 71.6 °F 48.2 °F 43% 29.80 in 6.2 mi WSW 19.6 mph 32.2 mph N/A   Partly Cloudy
2:00 PM 71 °F 48 °F 33% 29.76 in - WSW 16.1 mph - -  
2:00 PM 69.8 °F 48.2 °F 46% 29.77 in 6.2 mi WSW 17.3 mph 28.8 mph N/A   Partly Cloudy
2:30 PM 71.6 °F 48.2 °F 43% 29.77 in 6.2 mi WSW 15.0 mph 26.5 mph N/A   Partly Cloudy
3:00 PM 72 °F 48 °F 31% 29.73 in - WSW 15.0 mph - -  
3:00 PM 69.8 °F 46.4 °F 43% 29.74 in 6.2 mi WSW 13.8 mph - N/A   Partly Cloudy
3:30 PM 69.8 °F 51.8 °F 53% 29.77 in 6.2 mi SW 12.7 mph - N/A   Partly Cloudy
4:00 PM 71 °F 51 °F 38% 29.73 in 19 mi SW 11.5 mph - -   Scattered Clouds
4:00 PM 69.8 °F 50.0 °F 49% 29.74 in 6.2 mi SW 11.5 mph - N/A   Partly Cloudy
4:30 PM 69.8 °F 48.2 °F 46% 29.74 in 6.2 mi WSW 12.7 mph - N/A   Partly Cloudy
5:00 PM 72 °F 48 °F 31% 29.71 in - West 17.3 mph - -  
5:00 PM 71.6 °F 48.2 °F 43% 29.74 in 6.2 mi West 17.3 mph - N/A   Partly Cloudy
5:30 PM 69.8 °F 46.4 °F 43% 29.74 in 6.2 mi WSW 18.4 mph 31.1 mph N/A   Partly Cloudy
6:00 PM 69 °F 49 °F 37% 29.72 in - SW 10.4 mph - -  
6:00 PM 68.0 °F 48.2 °F 49% 29.74 in 6.2 mi WSW 11.5 mph - N/A   Partly Cloudy
6:30 PM 66.2 °F 48.2 °F 52% 29.74 in 6.2 mi SW 9.2 mph - N/A   Partly Cloudy
7:00 PM 65 °F 49 °F 45% 29.73 in 22 mi SW 10.4 mph - -   Scattered Clouds
7:00 PM 64.4 °F 48.2 °F 56% 29.74 in 6.2 mi SW 8.1 mph - N/A   Partly Cloudy
7:30 PM 62.6 °F 48.2 °F 59% 29.74 in 6.2 mi SW 8.1 mph - N/A   Partly Cloudy
8:00 PM 61 °F 49 °F 54% 29.74 in - South 6.9 mph - -  
8:00 PM 60.8 °F 48.2 °F 63% 29.74 in 6.2 mi SW 5.8 mph - N/A   Partly Cloudy
8:30 PM 59.0 °F 48.2 °F 67% 29.74 in 6.2 mi SSW 9.2 mph - N/A   Partly Cloudy
9:00 PM 58 °F 49 °F 63% 29.74 in - SSW 9.2 mph - -  
9:00 PM 57.2 °F 48.2 °F 72% 29.74 in 6.2 mi SSW 9.2 mph - N/A   Partly Cloudy
9:30 PM 57.2 °F 48.2 °F 72% 29.74 in - SSW 4.6 mph - N/A   Clear
10:00 PM 59 °F 49 °F 60% 29.72 in - SW 10.4 mph - -  
10:00 PM 59.0 °F 48.2 °F 67% 29.74 in - SW 9.2 mph - N/A   Clear
10:30 PM 59.0 °F 48.2 °F 67% 29.71 in - SSW 13.8 mph - N/A   Clear
11:00 PM 59 °F 49 °F 61% 29.71 in - SSW 15.0 mph - -  
11:00 PM 59.0 °F 48.2 °F 67% 29.71 in - SSW 15.0 mph - N/A   Clear
11:30 PM 59.0 °F 48.2 °F 67% 29.71 in - SSW 16.1 mph - N/A   Clear